Starlink 31073

operational
NORAD ID: 58773 Int'l Des: 2024-011 Owner: SPXS Country: US Constellation: starlink
LEOCIRCULAR

About Starlink 31073

Description loading...

Live Position

Loading 3D Globe...

Upcoming Passes

Altitude History

Altitude vs Time

uPlot chart will show altitude changes over time

Two-Line Element Set

1 58773U 24011J 25258.28247474 .00000403 00000-0 25736-4 0 9992
2 58773 53.1603 108.4982 0001209 90.7010 269.4129 15.30198817 93414
Epoch: Sep 15, 2025 • Age: 13 hours

Current Status

Altitude 481.0 km
Velocity 7.63 km/s
Sub-Earth Point 53.31°N, 95.72°W
Launch Date Jan 14, 2024
Age 1.6 years
Type internet

Technical Details

Classification Payload
Mass 730.00 kg
Dry Mass 700.00 kg
Total Mass 730.00 kg
Length 0.30 m
Diameter 4.10 m
Span 29.00 m
Shape Box + pan
Manufacturer SPXS
Bus Type Starlink V2M
Phase Status In Orbit
Owner/State SPXS/US

Large Constellations

Loading constellations...